Meacham, OR

10:16 AM PDT on April 26, 2017 (GMT -0700)
Meacham

Weather History for KMEH - December, 2013

Change the Weather History Date:

Friday, December 6, 2013

  Actual Average Record
Temperature  
Mean Temperature 4 °F -  
Max Temperature 16 °F 34 °F 50 °F (2008)
Min Temperature -9 °F 22 °F -9 °F (2013)
Degree Days  
Heating Degree Days 62    
Moisture  
Dew Point 3 °F    
Average Humidity 76    
Maximum Humidity 84    
Minimum Humidity 70    
Precipitation  
Precipitation 0.04 in - - ()
Sea Level Pressure  
Sea Level Pressure 30.05 in    
Wind  
Wind Speed 1 mph (NE)    
Max Wind Speed 6 mph    
Max Gust Speed -    
Visibility 6 miles    
Events Snow    
Averages and records for this station are not official NWS values.
T = Trace of Precipitation, MM = Missing Value Source: NWS Daily Summary

Daily Weather History Graph

Daily Weather History Graph

Search for Another Location

Airport or City:

Trip Planner

Search our weather history database for the weather conditions in past years. The results will help you decide how hot, cold, wet, or windy it might be!

Date:

Astronomy

Dec. 06, 2013 Rise Set
Actual Time 7:19 AM PST 4:10 PM PST
Civil Twilight 6:45 AM PST 4:44 PM PST
Nautical Twilight 6:08 AM PST 5:21 PM PST
Astronomical Twilight 5:32 AM PST 5:57 PM PST
Moon 10:20 AM PST (12/6) 8:56 PM PST (12/6)
Length of Visible Light 9h 58m
Length of Day
8h 51m
Waxing Crescent, 20% of the Moon is Illuminated
Dec 6
Waxing Crescent
Dec 9
First Quarter
Dec 17
Full
Dec 25
Last Quarter
Jan 1
New

Hourly Weather History & Observations

Time (PST) Temp. Windchill Dew Point Humidity Pressure Visibility Wind Dir Wind Speed Gust Speed Precip Events Conditions
12:56 AM -7.1 °F - -11.9 °F 79% 30.24 in 10.0 mi Calm Calm - N/A   Overcast
1:56 AM -8.0 °F - -14.1 °F 75% 30.22 in 10.0 mi Calm Calm - N/A   Clear
2:56 AM -9.9 °F - -17.0 °F 71% 30.23 in 10.0 mi Calm Calm - N/A   Overcast
3:56 AM -9.9 °F - -16.1 °F 74% 30.25 in 10.0 mi Calm Calm - N/A   Mostly Cloudy
4:56 AM -8.0 °F - -14.1 °F 75% 30.25 in 10.0 mi Calm Calm - N/A   Overcast
5:56 AM -8.0 °F - -14.1 °F 75% 30.24 in 10.0 mi Calm Calm - N/A   Overcast
6:56 AM -8.0 °F - -14.1 °F 75% 30.25 in 10.0 mi Calm Calm - N/A   Mostly Cloudy
7:56 AM -6.0 °F - -11.9 °F 75% 30.24 in 10.0 mi Calm Calm - N/A   Overcast
8:56 AM -2.0 °F - -8.0 °F 76% 30.23 in 10.0 mi Calm Calm - N/A   Partly Cloudy
9:56 AM 12.0 °F - 6.1 °F 77% 30.19 in 10.0 mi Calm Calm - N/A   Overcast
10:56 AM 15.1 °F - 8.1 °F 74% 30.17 in 10.0 mi Calm Calm - N/A   Partly Cloudy
11:22 AM 15.1 °F 6.4 °F 7.0 °F 70% 29.94 in 10.0 mi East 5.8 mph - N/A   Mostly Cloudy
11:56 AM 16.0 °F 10.4 °F 9.0 °F 74% 30.15 in 10.0 mi Variable 3.5 mph - N/A   Overcast
12:52 PM 15.8 °F - 8.6 °F 73% 29.92 in 9.0 mi Calm Calm - N/A   Overcast
12:56 PM 16.0 °F - 9.0 °F 74% 30.12 in 10.0 mi Calm Calm - N/A   Overcast
1:56 PM 16.0 °F - 9.0 °F 74% 30.11 in 4.0 mi Calm Calm - N/A   Haze
2:56 PM 16.0 °F - 9.0 °F 74% 30.10 in 10.0 mi Calm Calm - N/A   Overcast
3:56 PM 15.1 °F - 8.1 °F 74% 30.08 in 9.0 mi Calm Calm - N/A   Overcast
4:56 PM 15.1 °F - 8.1 °F 74% 30.07 in 6.0 mi Calm Calm - N/A   Haze
5:39 PM 15.1 °F 9.4 °F 8.1 °F 74% 29.86 in 2.5 mi Variable 3.5 mph - 0.00 in Snow Light Snow
5:56 PM 15.1 °F 9.4 °F 8.1 °F 74% 30.06 in 3.0 mi Variable 3.5 mph - 0.00 in Snow Light Snow
6:13 PM 15.1 °F - 8.1 °F 74% 29.84 in 2.0 mi Calm Calm - 0.00 in Snow Light Snow
6:44 PM 15.1 °F - 8.1 °F 74% 29.84 in 2.0 mi Calm Calm - 0.00 in Snow Light Snow
6:56 PM 15.1 °F - 8.1 °F 74% 30.06 in 4.0 mi Calm Calm - 0.00 in Snow Light Snow
7:21 PM 15.1 °F - 8.1 °F 74% 29.85 in 2.5 mi Calm Calm - 0.00 in Snow Light Snow
7:56 PM 15.1 °F - 9.0 °F 77% 30.04 in 3.0 mi Calm Calm - 0.00 in Snow Light Snow
8:44 PM 14.0 °F - 9.0 °F 80% 29.84 in 2.0 mi Calm Calm - 0.01 in Snow Light Snow
8:48 PM 14.0 °F - 9.0 °F 80% 29.84 in 1.8 mi Calm Calm - 0.01 in Snow Light Snow
8:56 PM 14.0 °F 8.2 °F 9.0 °F 80% 30.04 in 1.8 mi North 3.5 mph - 0.01 in Snow Light Snow
9:56 PM 14.0 °F 8.2 °F 9.0 °F 80% 30.00 in 1.8 mi NNE 3.5 mph - 0.01 in Snow Light Snow
10:33 PM 12.9 °F - 8.1 °F 81% 29.84 in 2.0 mi Calm Calm - 0.01 in Snow Light Snow
10:40 PM 12.9 °F - 8.1 °F 81% 29.83 in 1.8 mi Calm Calm - 0.01 in Snow Light Snow
10:56 PM 12.0 °F - 8.1 °F 84% 29.99 in 1.5 mi Calm Calm - 0.01 in Snow Light Snow
11:16 PM 12.0 °F - 8.1 °F 84% 29.85 in 2.0 mi Calm Calm - 0.00 in Snow Light Snow
11:39 PM 12.0 °F 5.9 °F 7.0 °F 80% 29.84 in 2.0 mi Variable 3.5 mph - 0.01 in Snow Light Snow
11:56 PM 10.0 °F 1.8 °F 6.1 °F 84% 30.00 in 2.0 mi Variable 4.6 mph - 0.01 in Snow Light Snow